Location: Proctor
(47.8934°N, 114.3048°W)
Time: 10:37:34
(UTC+00:00)

Transit 4A - Pass Details

Date: 01 July 2024
Orbit: 870 x 973 km, 66.8° (Epoch: 13 July)

Event Time Altitude Azimuth Distance (km) Brightness Sun altitude
Rises 06:14:58 0° 264° (W) 3,456 11.1 -16.4°
Reaches altitude 10° 06:18:04 10° 280° (W) 2,520 10.6 -16.6°
Maximum altitude 06:22:26 21° 329° (NNW) 1,847 10.4 -16.9°
Drops below altitude 10° 06:26:51 10° 19° (NNE) 2,543 11.0 -17.1°
Sets 06:30:00 0° 35° (NE) 3,497 11.5 -17.3°
